Overview Statistics Trail Chart Weather Telemetry Raw packets
 

This is the latest recevied weather packets stored in our database for station/object OK1FET-5. If no packets are shown the sender has not sent any weather packets the latest 10 day(s).

<< 16 17 18 19 20 21 22 >>
Time Temp. Humidity Pressure Rain* Wind** Luminosity Snow
1788326329 17.78° C 68% 1023.3 hPa - - - -
1788325733 16.67° C 70% 1023.1 hPa - - - -
1788325137 15.56° C 72% 1023 hPa - - - -
1788324541 14.44° C 74% 1022.9 hPa - - - -
1788323946 13.33° C 77% 1022.7 hPa - - - -
1788322754 13.33° C 77% 1022.6 hPa - - - -
1788322159 13.33° C 77% 1022.5 hPa - - - -
1788321563 13.33° C 77% 1022.5 hPa - - - -
1788320967 13.33° C 77% 1022.4 hPa - - - -
1788320371 13.33° C 77% 1022.5 hPa - - - -
1788319775 13.89° C 76% 1022.5 hPa - - - -
1788319180 13.89° C 77% 1022.5 hPa - - - -
1788318584 13.89° C 77% 1022.5 hPa - - - -
1788317988 13.33° C 77% 1022.6 hPa - - - -
1788317393 13.33° C 76% 1022.7 hPa - - - -
1788316797 13.33° C 76% 1022.7 hPa - - - -
1788316201 13.33° C 75% 1022.7 hPa - - - -
1788315606 13.89° C 74% 1022.7 hPa - - - -
1788315010 13.89° C 74% 1022.5 hPa - - - -
1788314414 13.89° C 74% 1022.5 hPa - - - -
1788313818 13.89° C 72% 1022.5 hPa - - - -
1788313223 13.89° C 71% 1022.5 hPa - - - -
1788312627 13.89° C 71% 1022.5 hPa - - - -
1788312031 13.89° C 70% 1022.4 hPa - - - -
1788311435 13.89° C 71% 1022.4 hPa - - - -

* Rain since midnight (hover to see other rain measurements)
** Current wind speed in m/s (hover to see current wind gust speed)